Location: Dominion City
(49.1330°N, 97.1500°W)
Time: 07:01:45
(UTC-05:00)

Daily predictions for brighter satellites

Satellite Brightness Start Highest point End
(mag) Time Altitude Azimuth Time Altitude Azimuth Time Altitude Azimuth
Cosmos 2123 Rocket 4.1 20:16:50 10° N 20:23:13 89° WSW 20:29:29 10° S
Cosmos 1818 4.1 20:20:29 10° NW 20:25:53 65° WSW 20:31:15 10° SSE
Cosmos 1269 Rocket 4.0 20:20:59 10° NNW 20:26:17 72° ENE 20:31:34 10° SSE
Cosmos 1271 Rocket 4.1 20:23:50 10° SE 20:26:49 20° E 20:29:50 10° NE
Cosmos 1758 3.7 20:24:15 10° SSE 20:28:02 42° E 20:31:50 10° NNE
Cosmos 1674 3.2 20:26:24 10° N 20:29:58 39° ENE 20:33:34 10° SE
COSMO-SKYMED 1 4.4 20:26:12 10° N 20:30:14 38° WNW 20:34:14 10° SW
Cosmos 158 Rocket 4.0 20:25:52 10° NNW 20:30:58 67° ENE 20:36:11 10° SSE
Cosmos 1844 4.5 20:27:58 10° SW 20:33:42 60° WNW 20:39:28 10° NNE
Cosmos 1953 2.6 20:30:29 10° SSE 20:34:22 46° E 20:38:16 10° NNE
Lacrosse 5 1.9 20:29:43 10° SW 20:34:48 89° SSE 20:39:55 10° NE
Cosmos 1408 Rocket 3.8 20:30:34 10° N 20:34:56 49° ENE 20:39:16 10° SSE
Cosmos 1766 3.7 20:32:37 10° SSW 20:36:29 67° WNW 20:40:23 10° N
Resurs 1-3 3.6 20:35:11 10° SSE 20:39:33 76° ENE 20:43:58 10° N
Helios 1B rocket 3.4 20:38:47 10° NE 20:42:20 27° E 20:45:52 10° SSE
Meteor 1-4 Rocket 2.4 20:41:32 10° S 20:44:58 61° E 20:48:26 10° NNE
Cosmos 1939 Rocket 3.9 20:43:06 10° SE 20:46:43 29° ENE 20:50:21 10° N
Lacrosse 5 rocket 1.4 20:46:39 10° WNW 20:50:39 67° SW 20:54:09 12° SE
Lacrosse 4 Rocket 3.7 20:49:57 10° W 20:53:20 25° NW 20:56:45 10° NNE
Cosmos 1626 4.4 20:53:44 10° NE 20:54:16 10° ENE 20:54:49 10° ENE
Cosmos 389 Rocket 4.5 20:55:10 12° ENE 20:55:10 12° ENE 20:56:12 10° ENE
Cosmos 494 Rocket 4.4 20:49:53 10° NNW 20:54:47 43° ENE 20:59:01 13° SE
Cosmos 1076 Rocket 3.7 20:50:37 10° NNW 20:54:53 77° W 20:59:07 10° S
Spot 2 Rocket 3.8 20:50:54 10° S 20:56:00 74° WSW 21:01:09 10° NNW
Cosmos 2098 Rocket 4.4 20:50:01 10° S 20:57:28 77° E 21:04:57 10° NNE
Cosmos 1544 3.3 20:54:15 10° SSW 20:57:54 73° W 21:01:37 10° N
Cosmos 2061 Rocket 4.4 20:52:04 10° SSE 20:58:04 44° E 21:04:07 10° NNE
Timation 2 Rocket 4.1 20:52:15 10° NNW 20:58:39 79° WSW 21:04:44 10° SSE
Cosmos 2369 Rocket 3.9 21:01:47 12° E 21:01:47 12° E 21:02:56 10° ENE
CZ-2D R/B 3.5 20:57:32 10° S 21:01:24 73° WSW 21:05:19 10° NNW
Cosmos 1459 Rocket 4.2 20:56:42 10° SSE 21:02:40 50° E 21:08:34 10° NNE
Cosmos 1805 3.8 21:01:22 10° SSW 21:05:13 62° WNW 21:09:08 10° N
Cosmos 1867 3.5 21:00:40 10° SSW 21:06:05 71° SE 21:11:33 10° NE
Cosmos 1184 Rocket 3.3 21:03:12 10° N 21:06:26 40° ENE 21:08:25 20° SE
Helios 1A 2.9 21:04:23 10° SSE 21:08:34 86° ENE 21:12:47 10° NNW
Cosmos 1833 Rocket 3.2 21:03:30 10° NW 21:09:02 60° WSW 21:14:34 10° S
ALOS 4.1 21:06:34 10° SSW 21:10:47 33° W 21:15:03 10° NNW
Cosmos 2173 Rocket 4.1 21:04:54 10° SSE 21:10:56 56° E 21:17:05 10° NNE
USA 267 3.8 21:06:11 12° E 21:12:02 50° NNE 21:18:17 10° WNW
Envisat 3.0 21:09:08 10° SSE 21:14:10 67° ENE 21:19:14 10° N
Cosmos 1733 3.1 21:17:29 10° S 21:21:21 75° E 21:25:15 10° NNE
Cosmos 1766 Rocket 4.3 21:17:30 10° NNW 21:21:55 57° W 21:26:18 10° S
Geosat 4.0 21:17:54 10° NE 21:22:53 58° ESE 21:27:49 10° SSW
Cosmos 1470 2.7 21:19:21 10° S 21:23:20 82° E 21:27:19 10° NNE
Cosmos 2278 Rocket 3.4 21:17:55 10° SW 21:23:22 45° NW 21:28:50 10° NNE
SeaSat 1 4.2 21:19:41 10° S 21:23:59 30° WSW 21:28:19 10° NW
ATLAS 5 CENTAUR R/B 1.8 21:20:35 10° SSW 21:25:17 64° SE 21:30:28 10° NE
Cosmos 1125 Rocket 3.9 21:20:25 10° SSW 21:25:36 68° WNW 21:30:51 10° NNE
ERS-1 Rocket 3.2 21:23:15 21° SE 21:26:25 50° ENE 21:31:17 10° N
Cosmos-2242 3.0 21:23:16 10° S 21:27:31 87° W 21:31:49 10° N
Cosmos 1356 Rocket 3.4 21:24:08 10° N 21:28:14 61° ENE 21:30:27 25° SSE
GP-B 3.5 21:26:59 10° S 21:31:23 65° W 21:35:49 10° N
USA 186 3.2 21:29:44 10° SSW 21:31:38 24° W 21:33:31 10° NW
H-2A R/B 3.5 21:31:00 19° E 21:32:29 22° ENE 21:36:22 10° N
Cosmos 1340 Rocket 3.4 21:30:02 10° NNW 21:34:00 58° W 21:37:54 10° S
Cosmos 2344 4.3 21:27:33 10° WSW 21:35:15 62° NW 21:44:38 10° NE
CZ-4B DEB 3.3 21:33:45 16° S 21:36:01 54° W 21:39:05 10° NNW
BREEZE-M DEB (TANK) 2.2 21:35:39 10° W 21:37:53 57° SSW 21:38:17 49° SSE
Resurs 01 Rocket 3.9 21:37:11 10° SSW 21:40:50 25° W 21:44:30 10° NW
Coronas F rocket 3.7 21:39:07 10° NNE 21:39:19 12° NNE 21:39:19 12° NNE
Cosmos 2297 4.2 21:35:54 10° SW 21:41:35 64° WNW 21:47:19 10° NNE
Cosmos 2016 Rocket 3.9 21:36:56 10° S 21:43:05 71° E 21:49:13 10° NNE
CZ-4C R/B 4.4 21:48:37 10° ENE 21:48:37 10° ENE 21:48:42 10° ENE
Cosmos 2221 3.6 21:45:55 27° ENE 21:45:55 27° ENE 21:49:00 10° NNE
Meteor 1-29 3.1 21:41:57 10° N 21:45:26 76° WNW 21:48:55 10° SSW
ISS -3.3 21:42:49 10° SW 21:45:27 42° S 21:45:27 42° S
Cosmos 2082 Rocket 4.0 21:44:20 10° NW 21:49:06 28° WSW 21:53:49 10° SSW
MetOp-A 4.2 21:49:15 33° SE 21:51:29 58° ENE 21:56:45 10° N
Cosmos 1725 Rocket 4.0 21:47:24 13° S 21:52:48 59° E 21:58:53 10° NNE
Cosmos 1743 Rocket 4.2 21:48:43 10° NNW 21:53:04 56° W 21:56:52 13° S
Cosmos 1500 Rocket 3.7 21:49:45 10° NNW 21:54:05 73° W 21:56:35 24° S
SL-14 R/B 3.4 21:52:45 10° NNW 21:56:37 68° W 21:58:17 31° S
H-2A R/B 3.6 21:57:07 20° NE 21:57:07 20° NE 21:59:43 10° NNE
ARGOS 3.5 21:55:17 37° ESE 21:56:50 47° ENE 22:01:58 10° N
Cosmos 1805 Rocket 4.0 21:53:40 10° N 21:57:52 41° ENE 21:58:03 41° E
YAOGAN 6 2.6 21:58:47 52° S 21:59:37 85° WSW 22:03:23 10° NNW
Meteor 1-11 4.2 21:55:05 10° NNW 22:00:41 83° W 22:04:09 24° S
Cosmos 2058 2.8 21:56:32 10° N 22:00:44 79° E 22:01:37 54° SSE
Cosmos 1271 Rocket 4.2 21:58:50 10° SW 22:02:37 39° WNW 22:06:26 10° N
Meteor 1-16 Rocket 4.3 21:59:36 10° S 22:05:30 89° E 22:11:30 10° NNE
SL-08 R/B 4.5 21:59:19 10° S 22:05:43 86° E 22:12:11 10° N
Cosmos 2251 Rocket 4.1 22:00:49 10° NNW 22:06:01 56° WSW 22:09:13 23° S
Tsikada Rocket 3.9 22:04:12 10° N 22:10:26 88° W 22:14:02 27° S
SPOT 1/Viking Rocket 3.7 22:15:27 49° E 22:16:11 53° ENE 22:21:16 10° N
BREEZE-M DEB (TANK) 4.1 22:12:02 10° SW 22:16:35 57° SSE 22:34:20 10° ENE
Cosmos 2151 3.5 22:13:02 10° NNW 22:17:13 56° W 22:18:38 37° SSW
Helios 1B rocket 4.2 22:13:57 10° N 22:17:41 33° WNW 22:21:23 10° SW
Lacrosse 5 3.1 22:13:30 10° W 22:18:15 39° NNW 22:22:01 15° NE
USA 215 3.3 22:13:27 10° ENE 22:19:48 51° SE 22:26:07 10° SSW
SPOT 5 3.0 22:22:08 53° SSE 22:23:28 84° ENE 22:28:47 10° NNW
Cosmos 1703 3.4 22:23:22 10° NNW 22:27:04 73° NW 22:27:04 73° NW
Meteor 2-1 Rocket 4.1 22:25:50 36° S 22:28:19 83° E 22:33:59 10° NNE
Cosmos 2297 Rocket 4.4 22:25:48 10° N 22:28:29 13° NNE 22:30:44 11° NE
Cosmos 389 Rocket 3.3 22:29:07 48° WNW 22:29:07 48° WNW 22:32:32 10° N
Lacrosse 5 rocket 3.8 22:28:07 10° WSW 22:29:04 11° WSW 22:29:53 10° SW
Cosmos 1626 2.6 22:26:27 10° NNW 22:29:33 58° NNW 22:29:33 58° NNW
Terra 2.9 22:31:05 32° NE 22:31:05 32° NE 22:34:44 10° N
SL-08 RB Rocket 3.7 22:30:54 72° ENE 22:30:54 72° ENE 22:35:33 10° N
CZ-3B DEB 2.6 22:27:07 10° W 22:33:46 43° NNW 22:35:01 33° NNE
Cosmos 2369 Rocket 2.0 22:43:23 74° SE 22:43:37 76° ESE 22:49:15 10° NNE
Cosmos 1833 4.1 22:39:15 10° NNW 22:44:54 73° ENE 22:45:11 71° E
USA 267 3.1 22:53:31 62° ESE 22:54:46 89° NNE 23:01:21 10° NW
Cosmos 2227 Rocket 3.9 22:51:21 10° N 22:55:31 20° NE 22:56:18 20° NE
Cosmos 2233 Rocket 4.0 22:54:44 46° SSW 22:56:42 77° W 23:02:52 10° N
Sich 1 3.8 22:58:48 10° NNW 23:02:16 52° NW 23:02:16 52° NW
Cosmos 1943 Rocket 3.4 23:10:18 30° NE 23:10:18 30° NE 23:13:11 10° NNE
SL-24 R/B - RUBIN 2 4.2 23:03:52 10° NW 23:09:50 76° NNE 23:09:50 76° NNE
ATLAS 5 CENTAUR R/B 3.6 23:05:55 10° W 23:10:22 32° NNW 23:15:16 10° NE
Cosmos 1633 Rocket 4.0 23:06:28 10° NNW 23:09:44 46° NW 23:09:44 46° NW
H-2A R/B 2.2 23:11:38 70° W 23:11:38 70° W 23:16:42 10° NNW
Cosmos 1190 Rocket 4.4 23:12:02 10° NNW 23:16:29 62° N 23:16:29 62° N
Cosmos 2221 4.1 23:22:43 32° WNW 23:22:43 32° WNW 23:26:42 10° N
CZ-4C R/B 2.9 23:33:39 48° NNE 23:33:39 48° NNE 23:38:15 10° NE
H-2A R/B 3.9 23:34:14 28° NW 23:34:14 28° NW 23:36:24 10° NNW
Cosmos 2219 3.7 23:31:40 10° NNW 23:36:09 56° N 23:36:09 56° N
Cosmos 1464 Rocket 4.2 23:45:57 69° NW 23:45:57 69° NW 23:51:45 10° N
ATLAS 3B R/B 3.9 23:54:09 31° ENE 23:54:09 31° ENE 23:57:42 10° NE
